Vertical_Velocity
0 0 -2 2 3 1 1 0 1 -0 0 0 -1 -0 -1 -0 1 1 -1 1 -1 0 0 -1 -2 -0 -2 -2 -0 -1 -4 -3 -1 -1 1 1 1 3 2 -2 7 1 2 3 4
-1 2 -3 2 1 0 0 1 0 -1 -1 0 -0 -0 0 3 0 2 -0 -0 -0 -0 0 -2 -2 -1 -1 -0 -0 -0 -2 1 2 1 -1 1 0 -2 -1 4 4 2 10 -5 -1
1 2 -3 3 2 1 1 1 0 -0 -1 0 1 0 1 1 0 1 -2 -1 -1 1 -0 -1 -1 -1 -2 0 1 -2 1 2 6 1 -1 0 -1 3 -2 -1 4 5 -4 1 -4
4 -4 2 3 2 2 1 1 0 -0 0 -0 -1 1 2 -1 -2 -0 -1 0 0 2 -0 -2 -2 1 0 0 -1 -3 4 -1 4 2 1 0 2 2 3 7 -4 -3 -4 -1 1
-5 -2 3 3 1 0 2 0 -1 -1 -0 -0 -0 -1 1 1 -1 -1 -1 0 1 -2 -1 1 1 3 1 1 -0 -4 3 1 -0 0 -2 2 3 -0 4 -3 2 1 0 -3 -3
-2 2 2 1 1 1 1 -0 -0 0 0 -1 -1 1 -1 1 -0 1 -0 1 2 1 1 -1 -1 0 -2 1 -1 -2 -2 1 2 0 -2 1 -1 3 2 0 2 1 2 -1 -1
1 2 1 1 1 -0 -1 -0 1 0 1 -0 -0 1 1 0 1 2 2 3 2 1 -1 0 0 0 0 -1 -2 -0 -3 2 2 2 -4 -2 5 -0 2 -1 -0 -3 -2 -3 -1
1 1 -0 -1 -1 -1 -1 1 0 0 2 -1 2 2 2 1 1 1 0 0 -3 -3 0 0 -1 -1 1 1 -2 -0 -1 1 3 -1 -2 3 2 4 4 -2 1 0 -1 -0 0
1 -0 -0 -1 -0 0 1 0 0 0 1 1 3 3 3 0 1 -0 -2 -2 -2 0 0 0 1 -1 1 -0 -0 -2 -0 0 -2 -4 1 3 -1 1 1 0 -0 -2 -0 0 -0
-0 -0 -0 -0 1 0 1 1 3 4 2 3 2 0 -1 0 0 -1 1 1 -0 -1 1 1 -0 1 -0 -1 -3 -2 -1 0 -0 -5 8 -2 1 1 -3 -3 -1 -0 1 1 1
-1 0 0 -0 0 -0 -0 -1 0 -0 -0 -1 -0 -1 0 -1 1 1 0 1 0 2 1 1 -1 -1 -2 -2 -1 1 -0 -1 3 1 5 -1 -1 -3 -1 -1 -1 0 1 0 1
1 0 1 1 0 1 2 2 2 1 -1 1 1 0 1 1 1 0 1 2 1 -1 0 0 -1 -0 1 -1 0 -0 -1 -0 2 1 4 -0 -2 -3 -1 0 2 1 0 -1 -0
-1 -1 -1 -0 0 -0 -1 -1 -0 -0 -1 0 -0 2 -0 -0 -0 -1 -1 -0 -2 -1 -0 0 -1 -0 0 -0 -0 1 -1 1 2 1 -1 3 1 -3 -1 -1 -0 -0 1 1 1
1 -1 1 1 2 1 1 0 0 1 0 0 -1 -4 -2 -0 -1 -1 -3 -2 -1 -0 -1 -1 0 1 -0 -2 -1 -0 1 1 1 2 -1 3 -3 -7 -1 0 -1 -0 -1 -1 -1
1 1 1 1 0 2 0 1 1 3 -3 -1 1 -1 0 -1 -2 -0 -1 -0 -0 1 2 1 -0 -1 0 1 0 -1 -2 -0 1 1 2 0 4 -2 0 1 1 -0 -0 -2 -3
0 -0 -0 -0 1 1 1 2 1 1 -3 -1 -1 -1 -1 -0 -1 -1 -0 1 1 0 -1 -1 -1 -1 0 -1 0 1 0 2 1 0 0 1 3 -4 1 -0 0 2 -0 -0 -1
-1 0 1 1 0 0 1 0 -1 -1 -2 -1 -2 -1 -1 0 -1 -1 -1 -1 -1 -1 -1 -2 -1 -0 0 1 -1 -2 -3 -4 -4 -2 -6 2 2 -3 -1 -1 1 1 1 -1 -1
1 1 1 1 2 2 2 3 1 -1 -0 -0 -1 -0 -1 1 -1 -2 -2 -2 -1 -0 -1 2 2 -0 -1 -3 -4 -3 -3 -0 -1 -1 -4 5 -1 -4 2 0 1 1 -2 -0 1
0 1 1 1 1 1 1 1 -1 -0 -0 -0 0 -1 -1 -1 0 -1 -1 -1 -1 1 1 -3 -1 -1 -1 -1 -1 -1 -2 -1 -0 0 0 -1 -4 1 -1 -0 0 -1 -1 0 1
-0 -0 0 -0 -0 0 1 -1 -2 -1 -1 -0 -1 1 0 -0 -0 0 1 0 1 -1 -4 -2 -2 -1 -1 -0 -1 0 -0 -0 -1 -1 -2 -3 -4 -3 -3 0 -2 -2 -1 1 1
1 1 1 1 1 1 -2 -1 -1 -0 0 0 0 0 1 1 1 2 -0 -1 -2 -3 -3 -1 -1 -2 -2 -1 0 2 0 -0 -0 1 -2 -1 -10 3 3 -2 -1 1 0 -2 -1
1 1 2 2 1 1 0 1 1 1 0 0 1 1 1 1 -0 -3 -3 -1 -1 1 -0 -1 -2 -2 -1 -1 0 0 -3 -1 -1 -2 0 0 -40 0 -2 2 3 4 2 -1 -4
-0 1 1 1 2 1 0 0 1 1 1 1 -0 -1 -1 -1 -3 -1 -1 -1 -1 -2 -2 -1 -1 -1 -1 -1 -1 -2 -2 1 -0 1 -5 -2 -24 -3 7 7 19 -4 -3 -7 -11
-0 0 -0 0 -0 0 1 0 -0 -0 0 0 -0 -1 -1 -1 -0 -1 -2 -1 -1 -0 0 -1 -0 -1 -4 0 1 -2 3 3 3 0 -2 -25 -16 12 4 -11 -12 -4 -1 -2 1
1 -0 0 0 0 1 0 0 -0 -1 -1 -1 -1 -1 0 0 1 -0 2 1 1 -0 1 0 -2 -1 2 2 -1 -4 2 7 -0 4 -1 -5 -8 -9 4 -3 -1 -5 -2 0 -1
-1 -0 -1 -1 -0 -1 -0 0 0 0 1 0 -0 -0 1 1 0 0 1 1 0 -1 1 1 -0 -2 -10 1 1 -10 6 3 -1 2 -12 1 -31 15 -4 -3 -4 2 -8 -8 -5
-1 -2 -3 -2 -1 -1 -1 -1 -1 -1 -1 -1 -1 -1 -1 -1 -0 0 0 1 -1 1 4 -0 0 -0 -5 -3 -4 -8 -3 -1 0 1 -1 -5 -0 1 4 0 -7 -11 4 -3 -9
Height
3104 3109 3116 3122 3128 3134 3140 3145 3151 3158 3164 3168 3172 3176 3180 3183 3185 3188 3190 3192 3193 3195 3196 3198 3199 3199 3200 3200 3200 3200 3200 3199 3198 3197 3197 3196 3195 3194 3193 3192 3190 3188 3185 3184 3182
3105 3111 3119 3123 3129 3135 3140 3145 3151 3158 3164 3168 3172 3176 3180 3183 3185 3187 3190 3191 3193 3195 3196 3197 3198 3198 3199 3199 3199 3199 3198 3197 3196 3195 3194 3193 3193 3191 3191 3189 3185 3185 3182 3179 3179
3107 3114 3121 3125 3130 3136 3141 3146 3152 3159 3164 3168 3172 3176 3179 3182 3185 3187 3189 3191 3193 3194 3195 3196 3197 3197 3198 3198 3197 3197 3196 3196 3195 3193 3192 3191 3190 3188 3187 3184 3182 3179 3178 3176 3175
3111 3119 3123 3127 3132 3138 3143 3148 3154 3159 3165 3169 3173 3176 3179 3182 3187 3186 3188 3190 3191 3193 3194 3195 3195 3195 3195 3195 3195 3195 3194 3193 3193 3191 3189 3188 3188 3186 3186 3183 3177 3175 3174 3173 3172
3119 3123 3126 3130 3135 3140 3145 3150 3155 3160 3166 3170 3173 3176 3179 3183 3184 3185 3187 3189 3190 3191 3192 3193 3193 3194 3194 3193 3193 3192 3192 3191 3189 3188 3186 3185 3185 3185 3185 3177 3175 3173 3172 3170 3169
3124 3126 3129 3133 3138 3142 3147 3152 3157 3162 3167 3171 3174 3177 3180 3183 3183 3184 3185 3187 3188 3189 3190 3191 3191 3192 3192 3191 3191 3190 3189 3188 3187 3185 3184 3183 3184 3184 3182 3175 3173 3171 3170 3169 3168
3127 3129 3133 3137 3141 3145 3150 3154 3159 3164 3168 3172 3175 3177 3180 3182 3182 3183 3185 3186 3187 3188 3189 3190 3190 3191 3190 3189 3188 3187 3186 3185 3184 3184 3182 3181 3183 3180 3177 3173 3170 3168 3167 3166 3165
3130 3133 3136 3140 3144 3148 3152 3157 3161 3165 3169 3173 3175 3177 3179 3181 3182 3183 3185 3186 3187 3188 3188 3189 3189 3189 3188 3187 3185 3184 3182 3182 3182 3181 3179 3179 3177 3176 3173 3168 3166 3164 3163 3162 3160
3134 3136 3139 3143 3146 3151 3155 3159 3163 3167 3170 3173 3176 3177 3180 3181 3182 3183 3184 3185 3186 3186 3186 3186 3186 3186 3185 3184 3183 3180 3179 3179 3180 3178 3176 3175 3171 3169 3168 3166 3162 3159 3157 3156 3154
3137 3140 3143 3146 3150 3153 3157 3161 3165 3168 3171 3174 3176 3180 3180 3181 3181 3182 3183 3183 3184 3184 3184 3184 3183 3182 3181 3180 3179 3177 3176 3176 3176 3176 3172 3168 3166 3161 3160 3160 3157 3155 3152 3151 3150
3141 3144 3147 3150 3153 3156 3160 3163 3169 3172 3173 3175 3176 3177 3178 3180 3180 3181 3181 3182 3182 3182 3181 3180 3181 3179 3178 3177 3177 3175 3174 3172 3172 3171 3168 3164 3161 3159 3156 3155 3154 3152 3150 3148 3147
3144 3147 3149 3152 3155 3159 3162 3165 3168 3172 3173 3174 3175 3177 3178 3179 3179 3179 3180 3181 3179 3179 3178 3178 3177 3177 3176 3175 3174 3172 3171 3169 3168 3167 3165 3160 3156 3155 3154 3152 3151 3149 3148 3147 3146
3147 3150 3153 3156 3158 3161 3164 3167 3169 3171 3174 3175 3175 3175 3177 3178 3177 3177 3178 3176 3176 3176 3175 3175 3176 3174 3174 3173 3171 3170 3168 3166 3165 3163 3159 3157 3153 3152 3151 3150 3148 3146 3145 3144 3143
3150 3153 3155 3158 3163 3163 3166 3168 3170 3172 3174 3175 3174 3174 3174 3174 3175 3174 3174 3175 3174 3174 3173 3173 3172 3172 3171 3170 3169 3167 3165 3163 3162 3160 3159 3156 3153 3147 3146 3146 3145 3143 3141 3139 3137
3152 3155 3157 3160 3162 3165 3168 3168 3170 3172 3173 3174 3172 3171 3171 3174 3173 3172 3172 3172 3171 3171 3172 3172 3170 3169 3169 3168 3167 3166 3163 3160 3157 3155 3153 3148 3151 3140 3141 3141 3140 3139 3137 3135 3133
3154 3156 3158 3160 3162 3165 3166 3168 3171 3174 3170 3170 3170 3170 3171 3170 3170 3170 3170 3170 3169 3168 3168 3168 3168 3168 3167 3166 3165 3162 3160 3156 3151 3151 3150 3144 3146 3137 3136 3137 3136 3135 3133 3131 3129
3154 3156 3158 3160 3162 3164 3166 3168 3172 3169 3170 3169 3168 3169 3169 3169 3169 3168 3168 3168 3168 3168 3167 3167 3166 3165 3165 3164 3162 3161 3158 3154 3153 3151 3147 3144 3143 3134 3133 3132 3132 3130 3129 3127 3124
3154 3156 3158 3159 3161 3162 3164 3167 3167 3166 3166 3167 3167 3167 3167 3168 3167 3166 3166 3166 3165 3165 3165 3164 3164 3164 3163 3163 3162 3159 3159 3159 3158 3154 3146 3144 3136 3131 3131 3130 3128 3126 3124 3122 3119
3154 3156 3157 3159 3160 3161 3164 3165 3164 3164 3165 3165 3165 3165 3166 3166 3166 3165 3164 3164 3163 3163 3164 3162 3162 3161 3161 3160 3161 3158 3158 3158 3156 3152 3149 3137 3133 3129 3127 3125 3124 3122 3121 3117 3114
3154 3156 3157 3158 3159 3160 3163 3162 3162 3162 3163 3163 3163 3164 3164 3164 3165 3163 3162 3162 3162 3163 3163 3162 3160 3159 3159 3158 3158 3157 3157 3156 3155 3152 3148 3134 3130 3126 3123 3122 3121 3119 3117 3114 3110
3155 3155 3156 3157 3158 3160 3160 3161 3160 3160 3161 3162 3162 3162 3162 3162 3162 3162 3161 3162 3161 3161 3160 3159 3159 3160 3158 3156 3154 3154 3152 3152 3152 3150 3148 3142 3125 3122 3120 3119 3117 3116 3112 3106 3102
3155 3156 3156 3157 3159 3158 3158 3159 3159 3158 3159 3160 3160 3160 3160 3160 3160 3160 3160 3160 3159 3158 3158 3158 3157 3155 3154 3152 3150 3149 3148 3148 3147 3146 3144 3140 3119 3118 3117 3116 3113 3112 3107 3102 3095
3156 3156 3157 3158 3158 3157 3157 3157 3157 3157 3158 3158 3158 3158 3158 3158 3160 3158 3157 3157 3157 3157 3156 3156 3153 3151 3149 3151 3147 3145 3143 3142 3141 3140 3135 3139 3117 3114 3113 3112 3110 3101 3097 3090 3084
3157 3158 3158 3157 3157 3157 3156 3157 3157 3157 3157 3157 3157 3157 3157 3157 3156 3155 3155 3155 3154 3153 3152 3151 3149 3147 3146 3143 3142 3141 3138 3136 3136 3134 3126 3117 3108 3112 3112 3106 3098 3092 3086 3080 3074
3158 3157 3157 3157 3157 3156 3156 3156 3156 3156 3156 3155 3155 3155 3155 3154 3153 3152 3152 3151 3150 3149 3147 3147 3144 3141 3139 3138 3135 3133 3130 3129 3126 3124 3120 3106 3105 3104 3102 3095 3089 3083 3077 3071 3063
3158 3158 3157 3157 3156 3156 3155 3155 3155 3154 3155 3154 3153 3153 3153 3152 3152 3150 3149 3148 3147 3144 3142 3140 3137 3135 3134 3132 3129 3125 3122 3118 3117 3114 3108 3105 3096 3101 3093 3087 3082 3077 3070 3061 3053
3157 3157 3157 3156 3155 3155 3155 3154 3154 3153 3153 3152 3151 3151 3150 3149 3147 3146 3144 3143 3142 3140 3137 3136 3133 3130 3126 3126 3124 3117 3111 3111 3108 3104 3104 3097 3094 3089 3083 3079 3075 3067 3061 3052 3043